Home   Weather   Copenhagen   Past weeks
Flag for Denmark

Past Weather in Copenhagen, Denmark — Yesterday and Last 2 Weeks

Now
54 °F

Sprinkles. Low clouds.


Feels Like: 54 °F
Forecast: 58 / 50 °F
Wind: 2 mph from South

Location: Koebenhavn-Kastrup Airport

Current Time: May 26, 2019 at 11:27:25 pm

Latest Report: May 26, 2019 at 10:50 pm


Visibility: 2 mi

Pressure: 29.62 "Hg

Humidity: 100%

Dew Point: 54 °F

Location of CopenhagenLocation

Past Weather in Copenhagen — Graph

°F

Copenhagen Temperature Yesterday

Maximum temperature yesterday: 66 °F (at 5:20 pm)
Minimum temperature yesterday: 50 °F (at 1:50 am)
Average temperature yesterday: 56 °F

High & Low Weather Summary for the Past Weeks

 TemperatureHumidityPressure
High70 °F (May 19, 3:50 pm)100% (May 18, 2:20 am)30.63 "Hg (May 18, 2:20 am)
Low39 °F (May 14, 5:20 am)33% (May 13, 11:20 am)29.62 "Hg (May 26, 8:50 pm)
Average55 °F75%30.03 "Hg
* Reported May 11 10:20 pm — May 26 10:20 pm, Copenhagen. Weather by CustomWeather, © 2019

Note: Actual official high and low records may vary slightly from our data, if they occured in-between our weather recording intervals... More about our weather records

Advertising

Copenhagen Weather History for the Previous 24 Hours

Scroll right to see more
 ConditionsComfort  
Time TempWeatherWind HumidityBarometerVisibility
10:20 pm
Sun, May 26
54 °FSprinkles. Low clouds.3 mph100%29.62 "Hg1 mi
9:50 pm54 °FSprinkles. Low clouds.5 mph100%29.65 "Hg3 mi
9:20 pm54 °FLight rain. Low clouds.6 mph100%29.65 "HgN/A
8:50 pm54 °FLight rain. Mostly cloudy.6 mph100%29.62 "HgN/A
7:51 pm54 °FRain. Low clouds.7 mph100%29.65 "Hg5 mi
7:20 pm55 °FRain. Overcast.8 mph88%29.65 "HgN/A
6:50 pm55 °FLight rain. Overcast.10 mph88%29.68 "HgN/A
6:20 pm55 °FLight rain. Overcast.12 mph88%29.65 "HgN/A
5:50 pm57 °FLight rain. Partly sunny.15 mph82%29.68 "HgN/A
5:20 pm61 °FPartly sunny.16 mph68%29.68 "HgN/A
4:50 pm59 °FPartly sunny.14 mph72%29.68 "HgN/A
4:20 pm59 °FPartly sunny.14 mph72%29.68 "HgN/A
3:50 pm59 °FPartly sunny.14 mph72%29.68 "HgN/A
3:20 pm59 °FPartly sunny.15 mph72%29.68 "HgN/A
2:50 pm59 °FMostly cloudy.14 mph72%29.68 "HgN/A
2:20 pm57 °FOvercast.15 mph77%29.68 "HgN/A
1:50 pm55 °FSprinkles. Overcast.15 mph88%29.68 "HgN/A
1:20 pm55 °FPartly sunny.15 mph88%29.68 "HgN/A
12:50 pm55 °FPartly sunny.17 mph82%29.68 "HgN/A
12:20 pm55 °FPartly sunny.20 mph82%29.68 "HgN/A
11:50 am54 °FLight rain. Overcast.18 mph88%29.68 "HgN/A
11:20 am54 °FLight rain. Overcast.20 mph88%29.68 "HgN/A
10:50 am52 °FLight rain. Low clouds.18 mph94%29.68 "Hg3 mi
10:28 am52 °FLight rain. Overcast.20 mph94%29.68 "HgN/A
9:49 am54 °FPartly sunny.17 mph82%29.71 "HgN/A
9:20 am52 °FPartly sunny.18 mph88%29.71 "HgN/A
8:49 am52 °FPartly sunny.20 mph88%29.71 "HgN/A
8:20 am52 °FOvercast.18 mph88%29.74 "HgN/A
7:50 am52 °FOvercast.16 mph82%29.74 "HgN/A
7:20 am52 °FLight rain. Overcast.16 mph88%29.77 "HgN/A
6:50 am50 °FLight rain. Overcast.15 mph88%29.77 "HgN/A
6:20 am50 °FPartly sunny.17 mph88%29.77 "HgN/A
5:50 am50 °FPartly sunny.15 mph88%29.77 "HgN/A
5:20 am50 °FPartly sunny.15 mph88%29.80 "HgN/A
4:50 am50 °FPartly sunny.15 mph82%29.80 "HgN/A
4:20 am50 °FPassing clouds.14 mph82%29.80 "HgN/A
3:50 am50 °FPassing clouds.15 mph76%29.80 "HgN/A
3:20 am50 °FPassing clouds.15 mph76%29.83 "HgN/A
2:50 am50 °FOvercast.14 mph76%29.83 "HgN/A
2:20 am52 °FPassing clouds.14 mph72%29.83 "HgN/A
1:50 am52 °FPassing clouds.16 mph72%29.83 "HgN/A
1:20 am52 °FPassing clouds.18 mph67%29.86 "HgN/A
12:50 am54 °FOvercast.12 mph72%29.86 "HgN/A
12:20 am54 °FOvercast.13 mph72%29.86 "HgN/A
11:50 pm
Sat, May 25
54 °FOvercast.15 mph72%29.86 "HgN/A
11:20 pm54 °FOvercast.14 mph72%29.86 "HgN/A
Weather by CustomWeather, © 2019

See weather overview